TimeEDT,TemperatureF,Dew PointF,Humidity,Sea Level PressureIn,VisibilityMPH,Wind Direction,Wind SpeedMPH,Gust SpeedMPH,PrecipitationIn,Events,Conditions,WindDirDegrees,DateUTC
12:52 AM,71.1,70.0,96,29.94,10.0,Calm,Calm,-,N/A,,Clear,0,2013-07-08 04:52:00
1:52 AM,70.0,69.1,97,29.95,9.0,Calm,Calm,-,N/A,,Clear,0,2013-07-08 05:52:00
2:52 AM,69.1,66.9,93,29.95,8.0,Calm,Calm,-,N/A,,Scattered Clouds,0,2013-07-08 06:52:00
3:20 AM,69.8,68.0,94,29.95,7.0,Calm,Calm,-,N/A,,Partly Cloudy,0,2013-07-08 07:20:00
3:35 AM,68.0,68.0,100,29.96,5.0,Calm,Calm,-,N/A,,Mostly Cloudy,0,2013-07-08 07:35:00
3:52 AM,68.0,68.0,100,29.95,5.0,Calm,Calm,-,N/A,,Overcast,0,2013-07-08 07:52:00
4:00 AM,69.8,68.0,94,29.96,6.0,Calm,Calm,-,N/A,,Overcast,0,2013-07-08 08:00:00
4:41 AM,69.8,69.8,100,29.97,7.0,Calm,Calm,-,N/A,,Overcast,0,2013-07-08 08:41:00
4:52 AM,70.0,69.1,97,29.96,9.0,Calm,Calm,-,N/A,,Mostly Cloudy,0,2013-07-08 08:52:00
5:52 AM,71.1,68.0,90,29.97,10.0,Calm,Calm,-,N/A,,Overcast,0,2013-07-08 09:52:00
6:52 AM,72.0,69.1,91,29.98,10.0,Calm,Calm,-,N/A,,Overcast,0,2013-07-08 10:52:00
7:52 AM,73.9,64.9,73,29.99,10.0,Calm,Calm,-,N/A,,Overcast,0,2013-07-08 11:52:00
8:52 AM,73.9,66.0,76,30.00,10.0,Calm,Calm,-,N/A,,Overcast,0,2013-07-08 12:52:00
9:23 AM,75.2,64.4,69,30.01,10.0,Calm,Calm,-,N/A,,Overcast,0,2013-07-08 13:23:00
9:52 AM,75.9,64.0,67,30.00,10.0,Calm,Calm,-,N/A,,Overcast,0,2013-07-08 13:52:00
10:52 AM,77.0,64.0,64,30.00,10.0,Calm,Calm,-,N/A,,Overcast,0,2013-07-08 14:52:00
11:52 AM,78.1,64.0,62,30.01,10.0,Calm,Calm,-,N/A,,Overcast,0,2013-07-08 15:52:00
12:39 PM,75.2,66.2,73,30.02,10.0,Calm,Calm,-,N/A,,Overcast,0,2013-07-08 16:39:00
12:50 PM,75.2,64.4,69,30.03,10.0,West,6.9,-,N/A,,Overcast,280,2013-07-08 16:50:00
12:52 PM,75.0,64.0,69,30.02,10.0,Variable,6.9,-,N/A,,Overcast,0,2013-07-08 16:52:00
1:40 PM,75.2,66.2,73,30.03,10.0,Variable,3.5,-,0.00,,Overcast,0,2013-07-08 17:40:00
1:52 PM,75.0,66.0,73,30.02,10.0,Calm,Calm,-,0.00,,Overcast,0,2013-07-08 17:52:00
2:52 PM,79.0,62.1,56,30.00,10.0,Calm,Calm,-,N/A,,Scattered Clouds,0,2013-07-08 18:52:00
3:52 PM,80.1,62.1,54,29.99,10.0,West,4.6,-,N/A,,Partly Cloudy,260,2013-07-08 19:52:00
4:52 PM,81.0,62.1,52,29.98,10.0,Calm,Calm,-,N/A,,Partly Cloudy,0,2013-07-08 20:52:00
5:52 PM,82.0,63.0,52,29.97,10.0,Variable,3.5,-,N/A,,Clear,0,2013-07-08 21:52:00
6:52 PM,80.1,64.0,58,29.98,10.0,Calm,Calm,-,N/A,,Partly Cloudy,0,2013-07-08 22:52:00
7:52 PM,77.0,66.9,71,29.99,10.0,Calm,Calm,-,N/A,,Overcast,0,2013-07-08 23:52:00
8:52 PM,73.0,69.1,87,30.02,10.0,Calm,Calm,-,N/A,,Mostly Cloudy,0,2013-07-09 00:52:00
9:52 PM,71.1,68.0,90,30.04,9.0,Calm,Calm,-,N/A,,Partly Cloudy,0,2013-07-09 01:52:00
10:52 PM,70.0,68.0,93,30.04,9.0,Calm,Calm,-,N/A,,Mostly Cloudy,0,2013-07-09 02:52:00
11:52 PM,69.1,66.9,93,30.04,8.0,Calm,Calm,-,N/A,,Scattered Clouds,0,2013-07-09 03:52:00